Location: Julian California
(33.0790°N, 116.6010°W)
Time: 03:31:52
(UTC-07:00)

Meteor 1-12 Rocket - Pass Details

Date: 19 May 2017
Orbit: 855 x 926 km, 81.2° (Epoch: 23 June)

Event Time Altitude Azimuth Distance (km) Brightness Sun altitude
Rises 20:58:50 0° 356° (N) 3,575 8.1 -14.7°
Reaches altitude 10° 21:01:21 10° 359° (N) 2,629 7.3 -15.1°
Maximum altitude 21:07:19 63° 80° (E) 1,021 4.4 -16.1°
Enters shadow 21:11:17 22° 157° (SSE) 1,905 5.5 -16.7°
